EW6205 Weather Reports


Display with metric or nautical units.
time (UTC)temp
F
wind
direction
speed
MPH
gust
MPH
rain 1hr
in
rain 24hr
in
rain mn
in
humidity
%
barometer
mb
20211023021706 42 126 5.0 10.0 0.00 0.00 0.00 69 1012.5
20211023021207 42 121 5.0 12.0 0.00 0.00 0.00 69 1012.5
20211023020708 42 105 5.0 12.0 0.00 0.00 0.00 69 1012.5
20211023020207 42 115 6.0 12.0 0.00 0.00 0.00 68 1012.5
20211023015706 43 162 5.0 12.0 0.00 0.00 0.00 68 1012.5
20211023015205 43 106 4.0 13.0 0.00 0.00 0.00 68 1012.6
20211023014706 43 94 4.0 13.0 0.00 0.00 0.00 68 1012.6
20211023014208 43 110 5.0 13.0 0.00 0.00 0.00 68 1012.5
20211023013705 43 111 4.0 9.0 0.00 0.00 0.00 68 1012.6
20211023013207 43 108 5.0 9.0 0.00 0.00 0.00 67 1012.5
20211023012707 44 97 5.0 12.0 0.00 0.00 0.00 67 1012.5
20211023012205 44 91 5.0 12.0 0.00 0.00 0.00 67 1012.5
20211023011706 44 95 5.0 12.0 0.00 0.00 0.00 67 1012.5
20211023011207 44 153 5.0 10.0 0.00 0.00 0.00 67 1012.5
20211023010705 44 56 5.0 16.0 0.00 0.00 0.00 66 1012.5
20211023010205 44 149 5.0 16.0 0.00 0.00 0.00 66 1012.5
20211023005704 45 103 6.0 16.0 0.00 0.00 0.00 66 1012.5
20211023005207 45 86 7.0 12.0 0.00 0.00 0.00 66 1012.4
20211023004707 45 141 6.0 12.0 0.00 0.00 0.00 66 1012.4
20211023004206 45 56 5.0 12.0 0.00 0.00 0.00 66 1012.4
20211023003705 45 72 5.0 12.0 0.00 0.00 0.00 66 1012.4
20211023003205 45 115 5.0 12.0 0.00 0.00 0.00 66 1012.4
20211023002713 45 101 4.0 12.0 0.00 0.00 0.00 66 1012.4
20211023002205 45 83 4.0 12.0 0.00 0.00 0.00 66 1012.4
20211023001707 46 98 5.0 12.0 0.00 0.00 0.00 66 1012.4
20211023001205 46 111 4.0 15.0 0.00 0.00 0.00 66 1012.4
20211023000707 46 120 4.0 15.0 0.00 0.00 0.00 66 1012.4
20211023000205 46 112 3.0 15.0 0.00 0.00 0.00 67 1012.3
20211022235705 46 103 3.0 13.0 0.00 0.00 0.00 67 1012.3
20211022235205 46 140 3.0 9.0 0.00 0.00 0.00 66 1012.3
20211022234707 46 311 3.0 12.0 0.00 0.00 0.00 66 1012.3
20211022234205 47 30 3.0 12.0 0.00 0.00 0.00 65 1012.4
20211022233707 47 22 3.0 12.0 0.00 0.00 0.00 65 1012.5
20211022233206 47 81 3.0 11.0 0.00 0.00 0.00 64 1012.6
20211022232705 48 106 3.0 12.0 0.00 0.00 0.00 63 1012.5
20211022232205 48 100 4.0 12.0 0.00 0.00 0.00 63 1012.5
20211022231705 49 132 4.0 12.0 0.00 0.00 0.00 62 1012.6
20211022231208 49 52 4.0 12.0 0.00 0.00 0.00 62 1012.5
20211022230709 49 66 5.0 12.0 0.00 0.00 0.00 61 1012.6
20211022230205 50 93 6.0 12.0 0.00 0.00 0.00 60 1012.5
20211022225707 51 98 5.0 11.0 0.00 0.00 0.00 59 1012.6
20211022225205 51 93 4.0 10.0 0.00 0.00 0.00 59 1012.5
20211022224705 52 91 5.0 13.0 0.00 0.00 0.00 57 1012.8
20211022224204 52 91 6.0 13.0 0.00 0.00 0.00 57 1012.6
20211022223705 52 96 6.0 13.0 0.00 0.00 0.00 57 1012.6
20211022223208 53 92 5.0 12.0 0.00 0.00 0.00 56 1012.6
20211022222705 53 51 5.0 11.0 0.00 0.00 0.00 56 1012.6
20211022222205 53 85 4.0 12.0 0.00 0.00 0.00 56 1012.6
20211022221706 53 111 4.0 12.0 0.00 0.00 0.00 56 1012.6
20211022221205 53 70 4.0 13.0 0.00 0.00 0.00 56 1012.6
20211022220705 53 50 6.0 13.0 0.00 0.00 0.00 56 1012.6
20211022220205 53 93 6.0 12.0 0.00 0.00 0.00 56 1012.5
20211022215708 53 92 5.0 12.0 0.00 0.00 0.00 56 1012.5
20211022215204 53 103 4.0 9.0 0.00 0.00 0.00 55 1012.5
20211022214705 53 101 4.0 10.0 0.00 0.00 0.00 55 1012.5
20211022214205 53 94 4.0 10.0 0.00 0.00 0.00 56 1012.5
20211022213705 53 27 4.0 9.0 0.00 0.00 0.00 55 1012.5
20211022213206 53 90 4.0 12.0 0.00 0.00 0.00 55 1012.5
20211022212705 53 103 4.0 12.0 0.00 0.00 0.00 56 1012.5
20211022212207 53 68 5.0 13.0 0.00 0.00 0.00 56 1012.6
20211022211705 53 12 5.0 13.0 0.00 0.00 0.00 56 1012.5
20211022211207 53 92 5.0 13.0 0.00 0.00 0.00 56 1012.6
20211022210705 53 108 4.0 13.0 0.00 0.00 0.00 56 1012.6
20211022210206 53 86 5.0 13.0 0.00 0.00 0.00 56 1012.8
20211022205704 53 101 5.0 15.0 0.00 0.00 0.00 57 1012.8
20211022205205 53 69 4.0 15.0 0.00 0.00 0.00 57 1012.8
20211022204706 53 55 6.0 15.0 0.00 0.00 0.00 57 1012.9
20211022204206 53 106 6.0 12.0 0.00 0.00 0.00 56 1013.0
20211022203705 53 47 5.0 13.0 0.00 0.00 0.00 57 1012.9
20211022203205 53 109 6.0 13.0 0.00 0.00 0.00 58 1013.0
20211022202705 52 64 6.0 14.0 0.00 0.00 0.00 58 1013.0
20211022202205 52 99 5.0 15.0 0.00 0.00 0.00 57 1013.1
20211022201705 52 51 6.0 15.0 0.00 0.00 0.00 58 1013.1
20211022201205 52 70 7.0 15.0 0.00 0.00 0.00 59 1013.2
20211022200706 52 129 6.0 13.0 0.00 0.00 0.00 59 1013.2
20211022200205 52 100 6.0 13.0 0.00 0.00 0.00 59 1013.3
20211022195705 52 81 5.0 13.0 0.00 0.00 0.00 58 1013.4
20211022195205 52 128 5.0 13.0 0.00 0.00 0.00 59 1013.3
20211022194710 52 119 5.0 13.0 0.00 0.00 0.00 59 1013.3
20211022194205 52 96 5.0 13.0 0.00 0.00 0.00 59 1013.3
20211022193706 51 73 6.0 12.0 0.00 0.00 0.00 60 1013.5
20211022193205 51 79 6.0 16.0 0.00 0.00 0.00 60 1013.5
20211022192705 51 100 6.0 16.0 0.00 0.00 0.00 59 1013.5
20211022192204 51 111 5.0 16.0 0.00 0.00 0.00 59 1013.5
20211022191705 51 63 6.0 12.0 0.00 0.00 0.00 60 1013.6
20211022191204 51 108 6.0 12.0 0.00 0.00 0.00 59 1013.7
20211022190706 51 150 5.0 12.0 0.00 0.00 0.00 60 1013.7
20211022190205 51 120 4.0 12.0 0.00 0.00 0.00 60 1013.8
20211022185706 50 65 4.0 12.0 0.00 0.00 0.00 62 1013.9
20211022185205 50 69 5.0 12.0 0.00 0.00 0.00 62 1013.9
20211022184705 49 128 6.0 12.0 0.00 0.00 0.00 62 1013.9
20211022184206 49 115 6.0 11.0 0.00 0.00 0.00 63 1014.0
20211022183705 49 92 5.0 11.0 0.00 0.00 0.00 62 1014.0
20211022183206 49 78 5.0 11.0 0.00 0.00 0.00 63 1014.2
20211022182705 49 128 5.0 11.0 0.00 0.00 0.00 63 1014.3
20211022182205 49 43 5.0 11.0 0.00 0.00 0.00 63 1014.3
20211022181705 49 28 3.0 10.0 0.00 0.00 0.00 63 1014.4
20211022181205 49 6 4.0 10.0 0.00 0.00 0.00 64 1014.4
20211022180705 48 326 4.0 10.0 0.00 0.00 0.00 65 1014.7
20211022180205 48 98 3.0 12.0 0.00 0.00 0.00 66 1014.7
20211022175705 48 87 5.0 12.0 0.00 0.00 0.00 65 1014.7
20211022175206 47 23 5.0 12.0 0.00 0.00 0.00 65 1014.7
20211022174706 48 113 5.0 9.0 0.00 0.00 0.00 66 1014.7
20211022174205 47 60 5.0 12.0 0.00 0.00 0.00 67 1014.7
20211022173706 47 36 4.0 12.0 0.00 0.00 0.00 67 1014.8
20211022173205 47 37 4.0 12.0 0.00 0.00 0.00 67 1014.8
20211022172706 47 58 3.0 9.0 0.00 0.00 0.00 68 1014.7
20211022172206 47 89 3.0 7.0 0.00 0.00 0.00 69 1014.7
20211022171705 46 58 3.0 7.0 0.00 0.00 0.00 70 1014.7
20211022171205 46 108 2.0 8.0 0.00 0.00 0.00 71 1014.8
20211022170707 45 67 3.0 10.0 0.00 0.00 0.00 71 1014.9
20211022170206 45 91 3.0 10.0 0.00 0.00 0.00 71 1014.9
20211022165706 45 49 3.0 8.0 0.00 0.00 0.00 72 1015.0
20211022165206 44 91 3.0 10.0 0.00 0.00 0.00 72 1014.9
20211022164704 44 74 3.0 10.0 0.00 0.00 0.00 73 1014.9
20211022164207 44 74 3.0 10.0 0.00 0.00 0.00 73 1015.0
20211022163705 44 51 4.0 10.0 0.00 0.00 0.00 74 1015.0
20211022163210 44 94 3.0 10.0 0.00 0.00 0.00 74 1015.1
20211022162705 44 100 2.0 8.0 0.00 0.00 0.00 75 1015.0
20211022162205 43 96 3.0 8.0 0.00 0.00 0.00 75 1015.0
20211022161707 43 72 4.0 8.0 0.00 0.00 0.00 75 1015.0
20211022161205 43 120 4.0 9.0 0.00 0.00 0.00 76 1015.1
20211022160706 43 117 4.0 9.0 0.00 0.00 0.00 76 1015.1
20211022160206 43 49 3.0 9.0 0.00 0.00 0.00 77 1015.2
20211022155705 43 69 2.0 7.0 0.00 0.00 0.00 77 1015.1
20211022155206 43 101 2.0 7.0 0.00 0.00 0.00 77 1015.1
20211022154705 42 174 2.0 8.0 0.00 0.00 0.00 78 1015.1
20211022154206 42 90 2.0 8.0 0.00 0.00 0.00 78 1015.1
20211022153705 42 105 2.0 8.0 0.00 0.00 0.00 79 1015.1
20211022153206 42 109 2.0 6.0 0.00 0.00 0.00 80 1015.1
20211022152705 41 98 1.0 5.0 0.00 0.00 0.00 80 1015.1
20211022152206 41 110 1.0 5.0 0.00 0.00 0.00 81 1015.1
20211022151707 41 48 1.0 4.0 0.00 0.00 0.00 81 1015.1
20211022151205 41 103 0.0 4.0 0.00 0.00 0.00 82 1015.1
20211022150708 40 88 1.0 4.0 0.00 0.00 0.00 84 1015.2
20211022150207 40 91 1.0 4.0 0.00 0.00 0.00 84 1015.1
20211022145705 39 32 1.0 4.0 0.00 0.00 0.00 85 1015.0
20211022145205 38 8 0.0 4.0 0.00 0.00 0.00 86 1015.0
20211022144708 38 53 0.0 4.0 0.00 0.00 0.00 86 1015.0
20211022144213 37 321 0.0 4.0 0.00 0.00 0.00 86 1015.0
20211022143705 37 2 0.0 1.0 0.00 0.00 0.00 88 1015.0
20211022143205 36 16 0.0 2.0 0.00 0.00 0.00 87 1015.0
20211022142706 35 319 0.0 2.0 0.00 0.00 0.00 88 1014.9
20211022142207 35 318 0.0 2.0 0.00 0.00 0.00 88 1014.9
20211022141705 35 335 0.0 2.0 0.00 0.00 0.00 88 1014.9
20211022141205 34 323 0.0 2.0 0.00 0.00 0.00 88 1014.8
20211022140705 34 316 0.0 1.0 0.00 0.00 0.00 88 1014.9
20211022140206 34 323 0.0 1.0 0.00 0.00 0.00 88 1014.8
20211022135706 34 336 0.0 2.0 0.00 0.00 0.00 88 1014.8
20211022135205 34 336 0.0 3.0 0.00 0.00 0.00 89 1014.8
20211022134705 34 321 0.0 4.0 0.00 0.00 0.00 88 1014.7
20211022134206 34 315 1.0 4.0 0.00 0.00 0.00 88 1014.6
20211022133707 34 326 2.0 3.0 0.00 0.00 0.00 88 1014.7
20211022133205 34 340 1.0 2.0 0.00 0.00 0.00 88 1014.7
20211022132705 35 322 1.0 2.0 0.00 0.00 0.00 87 1014.6
20211022132205 35 338 1.0 2.0 0.00 0.00 0.00 87 1014.4
20211022131705 35 328 1.0 2.0 0.00 0.00 0.00 87 1014.4
20211022131205 36 323 0.0 2.0 0.00 0.00 0.00 87 1014.3
20211022130705 36 319 0.0 1.0 0.00 0.00 0.00 87 1014.2
20211022130205 36 327 0.0 1.0 0.00 0.00 0.00 88 1014.2
20211022125705 36 314 0.0 1.0 0.00 0.00 0.00 87 1014.3
20211022125205 36 11 0.0 1.0 0.00 0.00 0.00 87 1014.2
20211022124705 36 348 0.0 2.0 0.00 0.00 0.00 87 1014.2
20211022124206 36 347 0.0 2.0 0.00 0.00 0.00 87 1014.1
20211022123706 36 2 0.0 2.0 0.00 0.00 0.00 87 1014.0
20211022123206 36 342 0.0 2.0 0.00 0.00 0.00 87 1014.0
20211022122705 36 344 0.0 2.0 0.00 0.00 0.00 87 1014.0
20211022122207 36 330 0.0 1.0 0.00 0.00 0.00 87 1013.9
20211022121707 36 330 0.0 1.0 0.00 0.00 0.00 87 1013.9
20211022121205 37 344 0.0 1.0 0.00 0.00 0.00 86 1013.8
20211022120705 37 344 0.0 1.0 0.00 0.00 0.00 85 1013.9
20211022120205 37 344 0.0 1.0 0.00 0.00 0.00 85 1013.8
20211022115705 38 354 0.0 1.0 0.00 0.00 0.00 85 1013.7
20211022115205 38 354 0.0 2.0 0.00 0.00 0.00 84 1013.8
20211022114706 38 337 0.0 3.0 0.00 0.00 0.00 84 1013.7
20211022114209 38 127 0.0 3.0 0.00 0.00 0.00 84 1013.8
20211022113705 38 108 1.0 3.0 0.00 0.00 0.00 84 1013.7
20211022113205 38 139 1.0 3.0 0.00 0.00 0.00 84 1013.7
20211022112705 38 109 1.0 2.0 0.00 0.00 0.00 84 1013.7
20211022112205 38 101 1.0 2.0 0.00 0.00 0.00 84 1013.8
20211022111705 38 125 0.0 4.0 0.00 0.00 0.00 84 1013.8
20211022111205 38 91 1.0 4.0 0.00 0.00 0.00 84 1013.8
20211022110705 38 91 1.0 4.0 0.00 0.00 0.00 83 1013.8
20211022110206 38 110 1.0 4.0 0.00 0.00 0.00 84 1013.7
20211022105705 38 91 1.0 3.0 0.00 0.00 0.00 84 1013.7
20211022105205 38 96 0.0 2.0 0.00 0.00 0.00 85 1013.8
20211022104704 38 141 0.0 1.0 0.00 0.00 0.00 84 1013.9
20211022104207 38 85 0.0 1.0 0.00 0.00 0.00 84 1013.9
20211022103706 38 85 0.0 1.0 0.00 0.00 0.00 84 1014.0
20211022103205 38 85 0.0 1.0 0.00 0.00 0.00 83 1014.1
20211022102705 38 85 0.0 1.0 0.00 0.00 0.00 83 1014.1
20211022102205 38 85 0.0 1.0 0.00 0.00 0.00 82 1014.1
20211022101705 39 85 0.0 1.0 0.00 0.00 0.00 82 1014.0
20211022101205 39 104 0.0 1.0 0.00 0.00 0.00 82 1014.0
20211022100705 39 104 0.0 2.0 0.00 0.00 0.00 81 1013.9
20211022100205 39 104 0.0 3.0 0.00 0.00 0.00 81 1013.9
20211022095705 39 85 1.0 3.0 0.00 0.00 0.00 81 1013.9
20211022095207 39 101 1.0 3.0 0.00 0.00 0.00 81 1014.0
20211022094707 39 184 1.0 3.0 0.00 0.00 0.00 81 1013.9
20211022094206 39 94 0.0 3.0 0.00 0.00 0.00 81 1013.9
20211022093707 39 95 0.0 3.0 0.00 0.00 0.00 81 1013.9
20211022093204 40 63 0.0 3.0 0.00 0.00 0.00 81 1013.9
20211022092705 40 103 0.0 1.0 0.00 0.00 0.00 81 1013.9
20211022092207 40 303 0.0 2.0 0.00 0.00 0.00 81 1013.9
20211022091705 40 44 0.0 2.0 0.00 0.00 0.00 81 1013.9
20211022091205 40 325 0.0 3.0 0.00 0.00 0.00 81 1013.9
20211022090705 39 47 0.0 3.0 0.00 0.00 0.00 81 1013.8
20211022090205 39 63 0.0 3.0 0.00 0.00 0.00 81 1013.8
20211022085705 39 354 0.0 2.0 0.00 0.00 0.00 81 1013.8
20211022085205 39 49 0.0 1.0 0.00 0.00 0.00 82 1013.8
20211022084707 39 351 0.0 1.0 0.00 0.00 0.00 82 1013.8
20211022084205 38 312 0.0 1.0 0.00 0.00 0.00 83 1013.7
20211022083705 38 318 0.0 1.0 0.00 0.00 0.00 84 1013.6
20211022083206 38 99 0.0 1.0 0.00 0.00 0.00 84 1013.4
20211022082707 38 107 0.0 1.0 0.00 0.00 0.00 84 1013.3
20211022082206 38 107 0.0 1.0 0.00 0.00 0.00 84 1013.4
20211022081705 38 117 0.0 1.0 0.00 0.00 0.00 84 1013.4
20211022081205 37 97 0.0 1.0 0.00 0.00 0.00 86 1013.4
20211022080705 36 84 0.0 0.0 0.00 0.00 0.00 87 1013.3
20211022075706 36 8 0.0 0.0 0.00 0.00 0.00 87 1013.4
20211022075206 36 8 0.0 0.0 0.00 0.00 0.00 86 1013.4
20211022074705 36 8 0.0 0.0 0.00 0.00 0.00 86 1013.4
20211022074205 36 8 0.0 1.0 0.00 0.00 0.00 86 1013.4
20211022073705 36 8 0.0 1.0 0.00 0.00 0.00 86 1013.5
20211022073205 36 8 0.0 1.0 0.00 0.00 0.00 85 1013.5
20211022072707 36 8 0.0 1.0 0.00 0.00 0.00 85 1013.6
20211022072205 37 8 0.0 0.0 0.00 0.00 0.00 84 1013.6
20211022071705 37 8 0.0 0.0 0.00 0.00 0.00 84 1013.7
20211022071206 37 8 0.0 0.0 0.00 0.00 0.00 84 1013.7
20211022070706 37 8 0.0 0.0 0.00 0.00 0.00 84 1013.7
20211022070207 37 8 0.0 0.0 0.00 0.00 0.00 83 1013.8
20211022065705 38 8 0.0 0.0 0.00 0.00 0.00 83 1013.8
20211022065205 38 8 0.0 2.0 0.00 0.00 0.00 84 1013.9
20211022064710 38 8 0.0 2.0 0.00 0.00 0.00 83 1013.7
20211022064206 38 8 0.0 2.0 0.00 0.00 0.00 82 1013.7
20211022063707 38 2 0.0 0.0 0.00 0.00 0.00 83 1013.9
20211022063204 37 321 0.0 0.0 0.00 0.00 0.00 82 1013.8
20211022062705 37 321 0.0 0.0 0.00 0.00 0.00 82 1013.9
20211022062204 37 321 0.0 1.0 0.00 0.00 0.00 82 1013.9
20211022061705 38 321 0.0 1.0 0.00 0.00 0.00 82 1014.0
20211022061205 38 321 0.0 1.0 0.00 0.00 0.00 82 1014.0
20211022060706 38 321 0.0 1.0 0.00 0.00 0.00 82 1014.0
20211022060206 38 321 0.0 1.0 0.00 0.00 0.00 81 1014.0
20211022055705 38 321 0.0 1.0 0.00 0.00 0.00 81 1014.1
20211022055205 38 321 0.0 1.0 0.00 0.00 0.00 81 1014.0
20211022054706 38 321 0.0 2.0 0.00 0.00 0.00 81 1014.1
20211022054205 38 321 0.0 2.0 0.00 0.00 0.00 81 1014.2
20211022053705 38 347 0.0 2.0 0.00 0.00 0.00 81 1014.2
20211022053207 38 343 0.0 1.0 0.00 0.00 0.00 81 1014.2
20211022052705 38 333 0.0 0.0 0.00 0.00 0.00 81 1014.2
20211022052205 38 333 0.0 1.0 0.00 0.00 0.00 81 1014.1
20211022051705 38 333 0.0 1.0 0.00 0.00 0.00 82 1014.2
20211022051205 38 333 0.0 1.0 0.00 0.00 0.00 82 1014.2
20211022050709 38 333 0.0 1.0 0.00 0.00 0.00 82 1014.3
20211022045705 38 333 0.0 1.0 0.00 0.00 0.00 82 1014.1
20211022045205 38 333 0.0 1.0 0.00 0.00 0.00 82 1014.2
20211022044705 38 333 0.0 1.0 0.00 0.00 0.00 82 1014.2
20211022044205 38 342 0.0 1.0 0.00 0.00 0.00 81 1014.2
20211022043705 39 342 0.0 1.0 0.00 0.00 0.00 81 1014.2
20211022043205 39 342 0.0 1.0 0.00 0.00 0.00 81 1014.3
20211022042705 39 342 0.0 1.0 0.00 0.00 0.00 81 1014.3
20211022042207 39 344 0.0 1.0 0.00 0.00 0.00 81 1014.3
20211022041707 39 105 0.0 0.0 0.00 0.00 0.00 80 1014.3
20211022041205 40 105 0.0 0.0 0.00 0.00 0.00 79 1014.2
20211022040705 40 105 0.0 0.0 0.00 0.00 0.00 79 1014.3
20211022040207 40 105 0.0 1.0 0.00 0.00 0.00 78 1014.3
20211022035705 41 105 0.0 1.0 0.00 0.00 0.00 77 1014.3
20211022035206 41 105 0.0 1.0 0.00 0.00 0.00 76 1014.3
20211022034705 41 107 0.0 0.0 0.00 0.00 0.00 75 1014.3
20211022034207 42 106 0.0 0.0 0.00 0.00 0.00 74 1014.3
20211022033707 42 107 0.0 1.0 0.00 0.00 0.00 73 1014.6
20211022033205 43 107 0.0 1.0 0.00 0.00 0.00 72 1014.6
20211022032705 43 107 0.0 2.0 0.00 0.00 0.00 71 1014.6
20211022032206 43 107 0.0 2.0 0.00 0.00 0.00 71 1014.6
20211022031707 44 107 0.0 2.0 0.00 0.00 0.00 71 1014.6
20211022031205 44 103 1.0 3.0 0.00 0.00 0.00 71 1014.4
20211022030705 44 101 1.0 3.0 0.00 0.00 0.00 71 1014.7
20211022030208 44 96 1.0 3.0 0.00 0.00 0.00 71 1014.6
20211022025705 44 108 1.0 3.0 0.00 0.00 0.00 71 1014.7
20211022025205 44 131 1.0 3.0 0.00 0.00 0.00 71 1014.7
20211022024706 44 150 1.0 3.0 0.00 0.00 0.00 70 1014.7
20211022024205 44 136 1.0 3.0 0.00 0.00 0.00 70 1014.7
20211022023705 44 117 0.0 3.0 0.00 0.00 0.00 69 1014.8
20211022023204 44 138 1.0 2.0 0.00 0.00 0.00 69 1014.8
20211022022705 44 112 1.0 2.0 0.00 0.00 0.00 69 1014.9
20211022022206 44 125 0.0 2.0 0.00 0.00 0.00 69 1014.9